Regional Weather Roundup
Issued by NWS Little Rock, AR

Home | Current Version | Previous Version | Text Only | Print | Product List | Glossary On
Versions: 1 2 3 4 5 6 7 8 9 10 11 12 13 14 15 16 17 18 19 20 21 22 23 24 25 26 27 28 29 30 31 32 33
000
ASUS44 KLZK 110705
RWRLZK

WEATHER ROUNDUP FOR ARKANSAS
NATIONAL WEATHER SERVICE LITTLE ROCK AR
100 AM CST SUN DEC 11 2016

NOTE: "FAIR" INDICATES FEW OR NO CLOUDS BELOW 12,000 FEET WITH NO
SIGNIFICANT WEATHER AND/OR OBSTRUCTIONS TO VISIBILITY.

ARZ001-003-010-029-110800-
NORTHWEST ARKANSAS

CITY           SKY/WX    TMP DP  RH WIND       PRES   REMARKS
FAYETTEVILLE   CLOUDY    42  24  49 S14G24    30.03F
FORT SMITH     CLOUDY    46  25  43 E6        30.10F
HARRISON       CLOUDY    40  24  53 SE13G24   30.07F
BENTONVILLE    CLOUDY    43  21  42 S12G18    30.02F
ROGERS         CLOUDY    43  25  49 S16G25    30.02F
SILOAM SPGS    CLOUDY    45  23  42 S14G21    30.01F
HIGHFILL       CLOUDY    44  25  47 S17       30.01F
$$

ARZ004-005-016-110800-
NORTH CENTRAL ARKANSAS

CITY           SKY/WX    TMP DP  RH WIND       PRES   REMARKS
BATESVILLE     CLOUDY    41  23  48 SE7       30.21F
FLIPPIN        CLOUDY    43  19  39 S10       30.09F
MTN HOME       CLOUDY    37  23  56 S7        30.11F
$$

ARZ040-041-110800-
WEST CENTRAL ARKANSAS

CITY           SKY/WX    TMP DP  RH WIND       PRES   REMARKS
MENA           CLOUDY    48  28  46 SE6G18    30.10F
MOUNT IDA      CLOUDY    46  23  40 VRB6      30.13F
$$

ARZ009-017-025-026-028-110800-
NORTHEAST ARKANSAS

CITY           SKY/WX    TMP DP  RH WIND       PRES   REMARKS
CORNING        CLOUDY    39  23  52 S14       30.22F
JONESBORO      CLOUDY    38  24  57 S9        30.25F
NEWPORT        CLOUDY    39  28  64 MISG        N/A
WALNUT RIDGE   CLOUDY    37  25  60 S9        30.22F
BLYTHEVILLE    CLOUDY    39  21  48 S14       30.27F
$$

ARZ022-023-033-042-044-110800-
CENTRAL ARKANSAS

CITY           SKY/WX    TMP DP  RH WIND       PRES   REMARKS
LITTLE ROCK    CLOUDY    41  29  62 SE6       30.22F
JACKSONVILLE   CLOUDY    41  29  62 E5        30.21F
SEARCY         CLOUDY    42  28  57 S9        30.24F
HOT SPRINGS    CLOUDY    44  26  49 SE7       30.19F
RUSSELLVILLE   CLOUDY    43  23  45 SE6       30.17F
CLINTON        CLOUDY    41  27  56 CALM      30.18F
$$

ARZ036-110800-
EAST ARKANSAS

CITY           SKY/WX    TMP DP  RH WIND       PRES   REMARKS
WEST MEMPHIS   CLOUDY    38  19  46 S10       30.28F
$$

ARZ050-053-066-070-073-110800-
SOUTHWEST ARKANSAS

CITY           SKY/WX    TMP DP  RH WIND       PRES   REMARKS
ARKADELPHIA    CLOUDY    44  29  55 S8        30.21F
CAMDEN         CLOUDY    45  25  45 S6        30.23F
TEXARKANA      CLOUDY    48  27  44 S12G18    30.18F
EL DORADO      CLOUDY    45  27  49 S12       30.23F
DE QUEEN       CLOUDY    46  32  58 SE5       30.15F
$$

ARZ056-057-069-110800-
SOUTHEAST ARKANSAS

CITY           SKY/WX    TMP DP  RH WIND       PRES   REMARKS
PINE BLUFF     CLOUDY    43  28  55 SE9       30.24F
STUTTGART      CLOUDY    43  25  49 SE13      30.24F
MONTICELLO     CLOUDY    43  25  49 SE7       30.25F

$$






USA.gov is the U.S. government's official web portal to all federal, state and local government web resources and services.